カタログに戻る

WENCHANG-1 02

運用中科学SSO
NORAD 51828·PAYLOAD·🇨🇳 China
この衛星名は、まだ公式ソースで確認されていません。

打ち上げ Feb 27, 2022 から Wenchang Space Launch Site

Loading…

次のパス (今後24時間)

TLE

最新Source: Space-Track

元期: Sep 14, 2026, 14:39 UTC

1 51828U 22019E   26257.61106823  .00025124  00000-0  27261-3 0  9992
2 51828  97.3787 358.4644 0005954 129.2978 230.8809 15.63485987253941

AllMySatでWENCHANG-1 02をリアルタイム追跡

Download on the App Store